User: anonymous   Login
Location: Newark
(39.0622°N, 106.5590°E)
Time: 02:49:08
(UTC+00:00)
Language:

Max Valier Satellite - Orbit

View from above orbital plane
View from above orbital plane
View from above satellite
View from above satellite

Ground track
Ground track

The orbit data is extracted from the following two-line orbital elements,

1 42778U 17036P   20058.79677981  .00000637  00000-0  30448-4 0  9993
2 42778  97.3207 115.4134 0013571  56.9668 303.2870 15.22420023148898
Epoch (UTC): 27 February 2020 19:07:21
Eccentricity: 0.0013571
inclination: 97.3207°
perigee height: 489 km
apogee height: 508 km
right ascension of ascending node: 115.4134°
argument of perigee: 56.9668°
revolutions per day: 15.22420023
mean anomaly at epoch: 303.2870°
orbit number at epoch: 14889

The dashed part of the orbit path shows where the satellite is in the earth's shadow,  

DLR